* Astronomy

Members Login
Post Info TOPIC: Asteroid 2010 LS108


L

Posts: 131433
Date:
Asteroid 2010 LS108
Permalink  
 


Orbital elements:
2010 LS108
Epoch 2010 July 23.0 TT = JDT 2455400.5 MPC
M 335.51798 (2000.0) P Q
n 0.21852430 Peri. 36.95836 +0.24946958 +0.73856937
a 2.7298339 Node 255.83536 -0.96837645 +0.19257764
e 0.5025949 Incl. 40.23786 +0.00346248 +0.64608756
P 4.51 H 16.4 G 0.15 U 9

MPEC 2010 - M22


__________________
Page 1 of 1  sorted by
Quick Reply

Please log in to post quick replies.



Create your own FREE Forum
Report Abuse
Powered by ActiveBoard